GW6805 Weather Reports


time (UTC)temp
C
wind
direction
speed
KPH
gust
KPH
rain 1hr
cm
rain 24hr
cm
rain mn
cm
humidity
%
barometer
mb
20260504150905 21 360 16.1 30.6 0.00 0.28 0.00 80
20260504140927 21 270 25.7 29.0 0.00 0.28 0.00 81
20260504120113 19 235 16.1 22.5 0.00 0.28 0.00 85 1014.7
20260504081805 19 135 1.6 9.7 0.00 0.33 0.00 90
20260504081610 19 150 1.6 9.7 0.00 0.33 0.00 90 1014.2
20260504080905 18 135 0.0 8.0 0.00 0.33 0.00 93
20260504070107 17 42 4.8 8.0 0.00 0.33 0.00 96 1013.7
20260504060106 16 140 3.2 6.4 0.00 0.33 0.00 96 1014.2
20260504050125 14 140 1.6 3.2 0.00 0.33 0.00 95 1014.0
20260504045427 15 270 0.0 1.6 0.00 0.33 0.00 95
20260504044526 14 140 0.0 1.6 0.00 0.33 0.00 95 1013.9
20260504044505 15 270 1.6 3.2 0.00 0.33 0.00 95
20260504043626 15 270 1.6 3.2 0.00 0.33 0.00 95
20260504043008 15 140 0.0 3.2 0.00 0.33 0.00 95 1013.8
20260504042727 15 270 3.2 4.8 0.00 0.33 0.00 95
20260504041805 15 270 3.2 4.8 0.00 0.33 0.00 95
20260504041609 15 140 3.2 4.8 0.00 0.33 0.00 95 1014.0
20260504040905 15 270 0.0 4.8 0.00 0.33 0.00 95
20260504040048 15 140 0.0 4.8 0.00 0.33 0.00 95 1014.3
20260504040026 15 270 4.8 4.8 0.00 0.33 0.00 94
20260504035406 15 270 4.8 4.8 0.00 0.33 0.00 94
20260504034536 15 140 3.2 4.8 0.00 0.33 0.00 94 1014.3
20260504034526 16 270 3.2 4.8 0.00 0.33 0.00 94
20260504033606 16 270 3.2 4.8 0.00 0.33 0.00 94
20260504033006 16 140 3.2 4.8 0.00 0.33 0.00 94 1014.1
20260504032705 16 270 0.0 3.2 0.00 0.33 0.00 94
20260504031826 16 270 0.0 3.2 0.00 0.33 0.00 94
20260504031630 16 140 1.6 3.2 0.00 0.33 0.00 94 1014.4
20260504030926 16 270 0.0 1.6 0.00 0.33 0.00 94
20260504030051 16 140 0.0 1.6 0.00 0.33 0.00 94 1014.4
20260504030005 17 270 0.0 3.2 0.00 0.33 0.00 95
20260504025405 17 270 0.0 3.2 0.00 0.33 0.00 95
20260504024522 16 140 0.0 3.2 0.00 0.33 0.00 95 1014.5
20260504024505 17 180 1.6 3.2 0.00 0.33 0.00 95
20260504023626 17 180 1.6 3.2 0.00 0.33 0.00 95
20260504023008 16 312 0.0 3.2 0.00 0.33 0.00 95 1014.6
20260504022706 17 180 1.6 4.8 0.00 0.33 0.00 94
20260504021805 17 180 1.6 4.8 0.00 0.33 0.00 94
20260504021613 16 312 0.0 4.8 0.00 0.33 0.00 94 1014.3
20260504020905 17 180 3.2 4.8 0.00 0.33 0.00 94
20260504020050 16 312 3.2 4.8 0.00 0.33 0.00 94 1014.4
20260504020005 16 180 6.4 8.0 0.00 0.33 0.00 94
20260504015406 16 180 6.4 8.0 0.00 0.33 0.00 94
20260504014533 16 312 4.8 8.0 0.00 0.33 0.00 94 1014.4
20260504014505 16 337 0.0 3.2 0.00 0.33 0.00 94
20260504013605 16 337 0.0 3.2 0.00 0.33 0.00 94
20260504013115 16 175 0.0 3.2 0.00 0.33 0.00 94 1014.4
20260504012705 17 337 0.0 3.2 0.00 0.33 0.00 94
20260504011806 17 337 0.0 3.2 0.00 0.33 0.00 94
20260504011558 17 175 0.0 3.2 0.00 0.33 0.00 94 1014.2
20260504010905 17 337 1.6 8.0 0.00 0.33 0.00 94
20260504010045 17 175 1.6 8.0 0.00 0.33 0.00 94 1014.5
20260504010006 17 337 1.6 16.1 0.00 0.33 0.00 94
20260504005426 17 337 1.6 16.1 0.00 0.33 0.00 94
20260504004520 17 175 3.2 16.1 0.00 0.33 0.00 94 1014.8
20260504004505 17 90 6.4 14.5 0.00 0.33 0.00 94
20260504003605 17 90 6.4 14.5 0.00 0.33 0.00 94
20260504003117 17 132 8.0 14.5 0.00 0.33 0.00 94 1015.1
20260504002705 17 202 9.7 12.9 0.00 0.33 0.00 94
20260504001805 17 202 9.7 12.9 0.00 0.33 0.00 94
20260504001612 17 169 4.8 12.9 0.00 0.33 0.00 94 1015.6
20260504000905 17 45 1.6 8.0 0.00 0.33 0.00 94
20260504000048 17 178 3.2 8.0 0.00 0.33 0.00 94 1015.4
20260504000006 17 112 1.6 4.8 0.00 0.33 0.00 94
20260503235405 17 112 1.6 4.8 0.00 0.33 0.00 94
20260503234524 17 133 1.6 4.8 0.00 0.33 0.00 94 1015.5
20260503234505 17 112 0.0 4.8 0.00 0.33 0.00 93
20260503233605 17 112 0.0 4.8 0.00 0.33 0.00 93
20260503233005 17 133 0.0 4.8 0.00 0.33 0.00 93 1015.3
20260503232705 17 112 1.6 3.2 0.00 0.33 0.00 93
20260503231806 17 112 1.6 3.2 0.00 0.33 0.00 93
20260503231608 17 133 0.0 3.2 0.00 0.33 0.00 93 1015.1
20260503230927 17 112 3.2 4.8 0.00 0.33 0.00 92
20260503230053 17 133 1.6 4.8 0.00 0.33 0.00 92 1015.2
20260503230026 17 112 1.6 6.4 0.00 0.33 0.00 93
20260503225405 17 112 1.6 6.4 0.00 0.33 0.00 93
20260503224533 17 133 3.2 6.4 0.00 0.33 0.00 93 1015.3
20260503224505 17 22 9.7 11.3 0.00 0.33 0.00 92
20260503223626 17 22 9.7 11.3 0.00 0.33 0.00 92
20260503223010 17 145 8.0 11.3 0.00 0.33 0.00 92 1015.1
20260503222705 17 360 6.4 8.0 0.15 0.33 0.00 91
20260503221806 17 360 6.4 8.0 0.15 0.33 0.00 91
20260503221607 17 128 4.8 8.0 0.13 0.33 0.00 91 1015.0
20260503220906 17 202 1.6 6.4 0.28 0.33 0.00 90
20260503220054 17 137 1.6 6.4 0.28 0.33 0.33 90 1015.0
20260503220006 17 202 1.6 4.8 0.28 0.33 0.00 89
20260503215407 17 202 1.6 4.8 0.28 0.33 0.33 89
20260503214547 17 137 0.0 4.8 0.28 0.33 0.33 89 1015.1
20260503214526 17 202 3.2 4.8 0.28 0.33 0.33 89
20260503213605 17 202 3.2 4.8 0.28 0.33 0.33 89
20260503213014 17 137 0.0 4.8 0.28 0.33 0.33 89 1015.4
20260503212705 17 292 3.2 4.8 0.15 0.20 0.20 87
20260503211805 17 292 3.2 4.8 0.15 0.20 0.20 87
20260503211622 17 173 1.6 4.8 0.15 0.20 0.20 87 1015.1
20260503210906 17 112 3.2 3.2 0.00 0.05 0.05 85
20260503210056 17 69 1.6 3.2 0.00 0.05 0.05 85 1015.1
20260503210006 17 0 0.0 0.0 0.00 0.05 0.05 84
20260503205405 17 0 0.0 0.0 0.00 0.05 0.05 84
20260503204559 17 69 0.0 0.0 0.00 0.05 0.05 84 1014.8
20260503204505 17 112 0.0 3.2 0.00 0.05 0.05 84
20260503203605 17 112 0.0 3.2 0.00 0.05 0.05 84
20260503203022 17 69 0.0 3.2 0.00 0.05 0.05 84 1014.7
20260503202728 17 112 1.6 3.2 0.00 0.05 0.05 83
20260503201805 17 112 1.6 3.2 0.00 0.05 0.05 83
20260503201501 17 69 0.0 3.2 0.00 0.05 0.05 83 1014.6
20260503200905 17 112 1.6 3.2 0.00 0.05 0.05 82
20260503200105 17 69 1.6 3.2 0.00 0.05 0.05 82 1014.9
20260503200005 18 112 1.6 4.8 0.00 0.05 0.05 82
20260503195405 18 112 1.6 4.8 0.00 0.05 0.05 82
20260503194552 17 69 1.6 4.8 0.00 0.05 0.05 82 1014.5
20260503194505 18 112 4.8 4.8 0.00 0.05 0.05 82
20260503193627 18 112 4.8 4.8 0.00 0.05 0.05 82
20260503193036 18 69 3.2 4.8 0.00 0.05 0.05 82 1014.3
20260503192705 18 67 4.8 8.0 0.00 0.05 0.05 81
20260503191806 18 67 4.8 8.0 0.00 0.05 0.05 81
20260503191513 18 67 3.2 8.0 0.00 0.05 0.05 81 1014.4
20260503190905 18 270 4.8 12.9 0.00 0.05 0.05 81
20260503190110 18 92 6.4 12.9 0.00 0.05 0.05 81 1014.5
20260503190006 18 45 11.3 14.5 0.00 0.05 0.05 80
20260503185407 18 45 11.3 14.5 0.00 0.05 0.05 80
20260503184611 18 98 6.4 14.5 0.00 0.05 0.05 80 1014.7
20260503184507 19 292 16.1 19.3 0.00 0.05 0.05 77
20260503183606 19 292 16.1 19.3 0.00 0.05 0.05 77
20260503183043 19 125 14.5 19.3 0.00 0.05 0.05 77 1014.7
20260503182706 20 67 11.3 19.3 0.00 0.05 0.05 74
20260503181807 20 67 11.3 19.3 0.00 0.05 0.05 74
20260503181512 20 115 12.9 19.3 0.00 0.05 0.05 74 1014.7
20260503180927 20 360 11.3 19.3 0.00 0.05 0.05 72
20260503180114 20 128 12.9 19.3 0.00 0.05 0.05 72 1014.9
20260503180027 21 112 6.4 20.9 0.00 0.05 0.05 69
20260503175406 21 112 6.4 20.9 0.00 0.05 0.05 69
20260503174620 20 117 11.3 20.9 0.00 0.05 0.05 69 1014.9
20260503174527 21 112 12.9 19.3 0.00 0.05 0.05 67
20260503173627 21 112 12.9 19.3 0.00 0.05 0.05 67
20260503173048 21 117 12.9 19.3 0.00 0.05 0.05 67 1014.8
20260503172726 22 360 14.5 19.3 0.00 0.05 0.05 67
20260503171805 22 360 14.5 19.3 0.00 0.05 0.05 67
20260503171527 21 160 11.3 19.3 0.00 0.05 0.05 67 1014.6
20260503170905 22 337 17.7 20.9 0.00 0.05 0.05 67